• In Hungary
  • List of Countries
  • For 7 days
  • Water Temperature
  • Satellite Maps
  • Weather Map
  • News
  • Weather Widgets
  • user-avatar
    Login

    Hourly Weather San Juan de Oriente

    Today, 24 October, Tuesday

    Time Temperature Precipitation Wind Pressure Humidity
    00:00 +26°C° 0.8 mm 1 mps 744 mmHg 90%
    01:00 +26°C° 0.6 mm 1 mps 744 mmHg 90%
    02:00 +26°C° 0.6 mm 1 mps 743 mmHg 90%
    03:00 +24°C° 0.6 mm 0 mps 743 mmHg 91%
    04:00 +24°C° 0.1 mm 0 mps 743 mmHg 91%
    05:00 +24°C° 0.1 mm 0 mps 744 mmHg 91%
    06:00 +24°C° 0.1 mm 0 mps 744 mmHg 91%
    07:00 +25°C° 0.1 mm 0 mps 744 mmHg 86%
    08:00 +28°C° 0.1 mm 1 mps 744 mmHg 82%
    09:00 +30°C° 0.1 mm 1 mps 745 mmHg 77%
    10:00 +30°C° 0.8 mm 1 mps 744 mmHg 75%
    11:00 +31°C° 0.8 mm 1 mps 744 mmHg 73%
    12:00 +32°C° 0.8 mm 1 mps 744 mmHg 71%
    13:00 +31°C° 1.5 mm 2 mps 743 mmHg 74%
    14:00 +31°C° 1.5 mm 2 mps 742 mmHg 78%
    15:00 +30°C° 1.5 mm 2 mps 742 mmHg 82%
    16:00 +29°C° 1.8 mm 2 mps 742 mmHg 85%
    17:00 +28°C° 1.8 mm 2 mps 742 mmHg 87%
    18:00 +27°C° 1.8 mm 2 mps 743 mmHg 90%
    19:00 +27°C° 2 mm 1 mps 743 mmHg 90%
    20:00 +27°C° 2 mm 1 mps 744 mmHg 90%
    21:00 +27°C° 2 mm 1 mps 744 mmHg 89%
    22:00 +26°C° 1.2 mm 1 mps 744 mmHg 89%
    23:00 +26°C° 1.2 mm 1 mps 744 mmHg 90%

    Tomorrow, 25 October, Wednesday

    Time Temperature Precipitation Wind Pressure Humidity
    00:00 +26°C° 1.2 mm 1 mps 744 mmHg 90%
    01:00 +26°C° 0.8 mm 1 mps 744 mmHg 90%
    02:00 +26°C° 0.8 mm 1 mps 743 mmHg 91%
    03:00 +26°C° 0.8 mm 1 mps 743 mmHg 91%
    04:00 +26°C° 0.4 mm 1 mps 743 mmHg 92%
    05:00 +26°C° 0.4 mm 1 mps 743 mmHg 92%
    06:00 +26°C° 0.4 mm 1 mps 743 mmHg 92%
    07:00 +27°C° 0.2 mm 2 mps 744 mmHg 89%
    08:00 +28°C° 0.2 mm 2 mps 744 mmHg 86%
    09:00 +29°C° 0.2 mm 2 mps 745 mmHg 83%
    10:00 +29°C° 0.9 mm 2 mps 744 mmHg 80%
    11:00 +30°C° 0.9 mm 2 mps 744 mmHg 78%
    12:00 +30°C° 0.9 mm 2 mps 744 mmHg 75%
    13:00 +30°C° 1.9 mm 2 mps 743 mmHg 79%
    14:00 +29°C° 1.9 mm 2 mps 742 mmHg 83%
    15:00 +28°C° 1.9 mm 2 mps 742 mmHg 87%
    16:00 +28°C° 1 mm 2 mps 742 mmHg 88%
    17:00 +27°C° 1 mm 2 mps 743 mmHg 90%
    18:00 +26°C° 1 mm 2 mps 743 mmHg 91%
    19:00 +26°C° 0.4 mm 2 mps 744 mmHg 91%
    20:00 +26°C° 0.4 mm 2 mps 744 mmHg 92%
    21:00 +26°C° 0.4 mm 2 mps 745 mmHg 92%
    22:00 +26°C° 0.3 mm 2 mps 745 mmHg 92%
    23:00 +26°C° 0.3 mm 2 mps 744 mmHg 92%

    Day after tomorrow, 26 October, Thursday

    Time Temperature Precipitation Wind Pressure Humidity
    00:00 +25°C° 0.3 mm 2 mps 744 mmHg 92%
    01:00 +25°C° 0.2 mm 2 mps 744 mmHg 92%
    02:00 +25°C° 0.2 mm 2 mps 743 mmHg 92%
    03:00 +25°C° 0.2 mm 2 mps 743 mmHg 92%
    04:00 +25°C° 0.1 mm 2 mps 743 mmHg 92%
    05:00 +25°C° 0.1 mm 2 mps 744 mmHg 91%
    06:00 +25°C° 0.1 mm 2 mps 744 mmHg 91%
    07:00 +27°C° 0.1 mm 3 mps 745 mmHg 86%
    08:00 +28°C° 0.1 mm 3 mps 745 mmHg 81%
    09:00 +29°C° 0.1 mm 4 mps 746 mmHg 76%
    10:00 +29°C° 0.9 mm 3 mps 745 mmHg 77%
    11:00 +30°C° 0.9 mm 3 mps 745 mmHg 78%
    12:00 +30°C° 0.9 mm 3 mps 744 mmHg 79%
    13:00 +29°C° 1.7 mm 2 mps 744 mmHg 82%
    14:00 +28°C° 1.7 mm 2 mps 743 mmHg 85%
    15:00 +28°C° 1.7 mm 1 mps 743 mmHg 88%
    16:00 +27°C° 2.5 mm 2 mps 743 mmHg 90%
    17:00 +26°C° 2.5 mm 2 mps 743 mmHg 91%
    18:00 +26°C° 2.5 mm 3 mps 744 mmHg 92%
    19:00 +25°C° 4.3 mm 3 mps 744 mmHg 93%
    20:00 +25°C° 4.3 mm 2 mps 745 mmHg 93%
    21:00 +25°C° 4.3 mm 2 mps 746 mmHg 93%
    22:00 +24°C° 2.6 mm 2 mps 746 mmHg 93%
    23:00 +24°C° 2.6 mm 2 mps 745 mmHg 94%

    27 October, Friday

    Time Temperature Precipitation Wind Pressure Humidity
    00:00 +24°C° 2.6 mm 2 mps 745 mmHg 94%
    01:00 +24°C° 0.3 mm 2 mps 745 mmHg 94%
    02:00 +24°C° 0.3 mm 2 mps 745 mmHg 93%
    03:00 +24°C° 0.3 mm 2 mps 744 mmHg 93%
    04:00 +24°C° 0.2 mm 2 mps 744 mmHg 92%
    05:00 +24°C° 0.2 mm 2 mps 745 mmHg 92%
    06:00 +24°C° 0.2 mm 2 mps 745 mmHg 92%
    07:00 +24°C° 0.1 mm 1 mps 746 mmHg 90%
    08:00 +25°C° 0.1 mm 1 mps 746 mmHg 89%
    09:00 +25°C° 0.1 mm 1 mps 747 mmHg 87%
    10:00 +26°C° 0 mm 1 mps 746 mmHg 82%
    11:00 +28°C° 0 mm 2 mps 746 mmHg 76%
    12:00 +29°C° 0 mm 2 mps 745 mmHg 71%
    13:00 +29°C° 0 mm 2 mps 745 mmHg 71%
    14:00 +29°C° 0 mm 2 mps 745 mmHg 70%
    15:00 +29°C° 0 mm 2 mps 744 mmHg 70%
    16:00 +28°C° 0 mm 2 mps 745 mmHg 74%
    17:00 +27°C° 0 mm 2 mps 745 mmHg 78%
    18:00 +26°C° 0 mm 2 mps 746 mmHg 81%
    19:00 +26°C° 0.1 mm 2 mps 746 mmHg 83%
    20:00 +26°C° 0.1 mm 2 mps 747 mmHg 85%
    21:00 +25°C° 0.1 mm 2 mps 747 mmHg 87%
    22:00 +25°C° 0.1 mm 2 mps 747 mmHg 88%
    23:00 +25°C° 0.1 mm 2 mps 746 mmHg 89%

    28 October, Saturday

    Time Temperature Precipitation Wind Pressure Humidity
    00:00 +25°C° 0.1 mm 2 mps 746 mmHg 89%
    01:00 +25°C° 0 mm 2 mps 746 mmHg 90%
    02:00 +25°C° 0 mm 1 mps 745 mmHg 91%
    03:00 +24°C° 0 mm 1 mps 745 mmHg 91%
    04:00 +24°C° 0 mm 1 mps 745 mmHg 92%
    05:00 +24°C° 0 mm 1 mps 746 mmHg 92%
    06:00 +24°C° 0 mm 1 mps 746 mmHg 93%
    07:00 +26°C° 0 mm 1 mps 746 mmHg 88%
    08:00 +27°C° 0 mm 1 mps 747 mmHg 83%
    09:00 +28°C° 0 mm 1 mps 747 mmHg 79%
    10:00 +29°C° 0 mm 1 mps 747 mmHg 74%
    11:00 +30°C° 0 mm 1 mps 746 mmHg 70%
    12:00 +30°C° 0 mm 2 mps 746 mmHg 66%
    13:00 +30°C° 0 mm 2 mps 745 mmHg 66%
    14:00 +30°C° 0 mm 1 mps 745 mmHg 66%
    15:00 +30°C° 0 mm 1 mps 744 mmHg 66%
    16:00 +29°C° 0 mm 1 mps 745 mmHg 70%
    17:00 +28°C° 0 mm 1 mps 746 mmHg 74%
    18:00 +27°C° 0 mm 1 mps 746 mmHg 77%
    19:00 +27°C° 0 mm 1 mps 746 mmHg 78%
    20:00 +26°C° 0 mm 1 mps 746 mmHg 79%
    21:00 +26°C° 0 mm 1 mps 747 mmHg 80%
    22:00 +26°C° 0 mm 1 mps 746 mmHg 82%
    23:00 +25°C° 0 mm 1 mps 746 mmHg 84%

    29 October, Sunday

    Time Temperature Precipitation Wind Pressure Humidity
    00:00 +25°C° 0 mm 1 mps 746 mmHg 86%
    01:00 +25°C° 0 mm 1 mps 746 mmHg 87%
    02:00 +24°C° 0 mm 1 mps 745 mmHg 88%
    03:00 +24°C° 0 mm 1 mps 745 mmHg 89%
    04:00 +24°C° 0.2 mm 1 mps 745 mmHg 89%
    05:00 +24°C° 0.2 mm 1 mps 746 mmHg 89%
    06:00 +24°C° 0.2 mm 1 mps 746 mmHg 89%
    07:00 +26°C° 0.1 mm 1 mps 747 mmHg 84%
    08:00 +27°C° 0.1 mm 1 mps 747 mmHg 79%
    09:00 +29°C° 0.1 mm 1 mps 747 mmHg 74%
    10:00 +30°C° 0.2 mm 1 mps 747 mmHg 72%
    11:00 +30°C° 0.2 mm 1 mps 746 mmHg 69%
    12:00 +31°C° 0.2 mm 2 mps 745 mmHg 67%
    13:00 +31°C° 0.6 mm 1 mps 745 mmHg 68%
    14:00 +30°C° 0.6 mm 1 mps 744 mmHg 70%
    15:00 +30°C° 0.6 mm 1 mps 744 mmHg 72%
    16:00 +29°C° 0.7 mm 1 mps 744 mmHg 76%
    17:00 +28°C° 0.7 mm 1 mps 745 mmHg 81%
    18:00 +26°C° 0.7 mm 1 mps 745 mmHg 85%
    19:00 +26°C° 0.1 mm 1 mps 745 mmHg 86%
    20:00 +26°C° 0.1 mm 1 mps 746 mmHg 87%
    21:00 +26°C° 0.1 mm 1 mps 746 mmHg 88%
    22:00 +26°C° 0 mm 1 mps 746 mmHg 88%
    23:00 +25°C° 0 mm 1 mps 746 mmHg 89%

    30 October, Monday

    Time Temperature Precipitation Wind Pressure Humidity
    00:00 +23°C° 0 mm 0 mps 745 mmHg 90%
    01:00 +25°C° 0 mm 1 mps 745 mmHg 90%
    02:00 +25°C° 0 mm 1 mps 745 mmHg 91%
    03:00 +25°C° 0 mm 1 mps 745 mmHg 91%
    04:00 +25°C° 0.1 mm 1 mps 745 mmHg 91%
    05:00 +25°C° 0.1 mm 1 mps 745 mmHg 91%
    06:00 +25°C° 0.1 mm 2 mps 746 mmHg 91%
    07:00 +26°C° 0.1 mm 2 mps 746 mmHg 86%
    08:00 +28°C° 0.1 mm 3 mps 746 mmHg 81%
    09:00 +29°C° 0.1 mm 3 mps 747 mmHg 75%
    10:00 +30°C° 0 mm 3 mps 746 mmHg 72%
    11:00 +31°C° 0 mm 3 mps 746 mmHg 69%
    12:00 +32°C° 0 mm 2 mps 745 mmHg 66%
    13:00 +32°C° 0.1 mm 2 mps 745 mmHg 66%
    14:00 +32°C° 0.1 mm 2 mps 744 mmHg 66%
    15:00 +32°C° 0.1 mm 2 mps 743 mmHg 67%
    16:00 +30°C° 0.7 mm 2 mps 744 mmHg 73%
    17:00 +28°C° 0.7 mm 1 mps 744 mmHg 80%
    18:00 +27°C° 0.7 mm 1 mps 744 mmHg 86%
    19:00 +27°C° 1.4 mm 2 mps 745 mmHg 87%
    20:00 +26°C° 1.4 mm 2 mps 745 mmHg 88%
    21:00 +26°C° 1.4 mm 2 mps 746 mmHg 89%
    22:00 +26°C° 0.2 mm 2 mps 746 mmHg 89%
    23:00 +26°C° 0.2 mm 2 mps 746 mmHg 90%
    Show more